#timestamp,LO_Frequency,Hit,StdDev 
1664874015.0,286047000.4,N
1664874015.9,286047000.4,N
1664874035.8,286047002.0,N
1664874055.6,286047000.5,N
1664874075.4,286047000.9,N
1664874095.3,286047000.4,N
1664874115.1,286047000.1,N
1664874135.8,286047001.1,N
1664874155.7,286047000.4,N
1664874175.5,286047001.2,N
1664874195.4,286047000.9,N
1664874215.2,286047000.2,N
1664874235.1,286047001.7,N
1664874236.0,286047001.7,N
1664874255.8,286047002.7,Y
1664874275.6,286046999.7,P
1664874295.5,286047000.4,N
1664874315.3,286047002.7,P
1664874335.2,286046999.8,N
1664874355.9,286047000.4,N
1664874375.7,286046999.8,N
1664874395.6,286046999.8,N
1664874415.4,286047000.4,N
1664874435.2,286047001.6,N
1664874455.1,286047003.9,Y
1664874456.0,286047003.9,P
1664874475.8,286047001.4,N
1664874495.7,286047003.8,N
1664874515.5,286047004.2,N
1664874535.3,286047001.9,N
1664874555.2,286047001.3,N
1664874575.0,286047004.0,N
1664874575.9,286047004.0,N
1664874595.8,286047001.7,N
1664874615.6,286047001.7,N
1664874635.4,286047001.7,N
1664874655.3,286047001.5,N
1664874675.1,286047002.2,N
1664874695.8,286047002.1,N
1664874715.7,286047002.0,N
1664874735.5,286047001.8,N
1664874755.4,286047001.7,N
1664874775.2,286047004.4,Y
1664874795.0,286047000.4,P
1664874795.9,286047000.4,N
1664874815.8,286047000.9,N
1664874835.6,286046998.4,N
1664874855.5,286046998.5,N
1664874875.3,286046998.4,N
1664874895.1,286046996.5,N
1664874915.9,286046997.0,N
1664874935.7,286046999.6,N
1664874955.6,286046997.3,N
1664874975.4,286046996.5,N
1664874995.2,286046997.7,N
1664875015.1,286046997.5,N
1664875016.0,286046997.5,N
1664875035.8,286046996.6,N
1664875055.7,286046996.7,N
1664875075.5,286046994.9,Y
1664875095.3,286046999.4,P
1664875115.2,286046999.2,N
1664875135.0,286046998.3,P
1664875135.9,286046998.3,Y
1664875155.7,286047002.6,P
1664875175.6,286047002.2,N
1664875195.4,286047001.7,N
1664875215.3,286047001.8,N
1664875235.1,286047003.5,N
1664875236.0,286047003.5,N
1664875255.8,286047004.4,N
1664875275.7,286047002.2,N
1664875295.5,286047002.8,N
1664875315.4,286047001.1,N
1664875335.2,286047000.6,N
1664875355.0,286047000.4,N
1664875355.9,286047000.4,N
1664875375.8,286046999.9,N
1664875395.6,286046999.7,N
1664875415.4,286047002.2,N
1664875435.3,286047002.1,N
1664875455.1,286046999.8,N
1664875475.9,286047004.2,N
1664875495.7,286047002.1,N
1664875515.5,286047004.3,N
1664875535.4,286047002.2,N
1664875555.2,286047001.5,N
1664875575.0,286047001.9,N
1664875576.0,286047001.9,N
1664875595.8,286047002.1,N
1664875615.6,286047004.2,N
1664875635.5,286047002.1,N
1664875655.3,286047001.9,N
1664875675.1,286047002.5,N
1664875695.9,286047000.1,N
1664875715.7,286047002.0,N
1664875735.6,286046999.8,N
1664875755.4,286047002.3,N
1664875775.2,286047001.1,N
1664875795.1,286047000.8,N
1664875796.0,286047000.8,N
1664875815.8,286047000.1,N
1664875835.7,286047001.9,N
1664875855.5,286047002.2,N
1664875875.3,286047000.4,N
1664875895.2,286046999.7,N
1664875915.0,286046999.7,N
1664875915.9,286046999.7,N
1664875935.7,286047002.5,N
1664875955.6,286047002.8,N
1664875975.4,286047000.1,N
1664875995.3,286047002.1,N
1664876015.1,286047001.2,N
1664876016.0,286047001.2,N
1664876035.8,286046998.1,N
1664876055.7,286047000.2,N
1664876075.5,286047000.5,N
1664876095.3,286047002.4,N
1664876115.2,286046999.7,N
1664876135.0,286047002.7,N
1664876135.9,286047002.7,N
1664876155.8,286047004.4,Y
1664876175.6,286047002.3,P
1664876195.5,286047000.8,N
1664876215.3,286047002.3,P
1664876235.1,286047001.6,N
1664876255.9,286047001.9,Y
1664876275.7,286047000.3,P
1664876295.5,286047001.1,N
1664876315.4,286046999.3,N
1664876335.2,286046996.5,Y
1664876355.1,286046994.9,P
1664876356.0,286046994.9,N
1664876375.8,286046996.7,N
1664876395.6,286046996.5,N
1664876415.5,286046997.0,N
1664876435.3,286046999.2,N
1664876455.2,286046998.7,N
1664876475.9,286046998.2,N
1664876495.7,286046998.5,N
1664876515.6,286046996.6,N
1664876535.4,286046996.6,N
1664876555.2,286046996.9,N
1664876575.1,286046997.6,N
1664876576.0,286046997.6,N
1664876595.8,286046997.5,N
1664876615.7,286046997.5,N
1664876635.5,286046997.1,N
1664876655.3,286046998.4,N
1664876675.2,286046998.7,N
1664876695.0,286046998.7,N
1664876695.9,286046998.7,N
1664876715.7,286046999.3,N
1664876735.6,286046999.1,N
1664876755.4,286046999.0,N
1664876775.3,286046998.5,N
1664876795.1,286047000.7,N
1664876796.0,286047000.7,N
1664876815.8,286047000.7,N
1664876835.7,286046999.3,N
1664876855.5,286046999.5,N
1664876875.3,286046998.8,N
1664876895.2,286046998.6,N
1664876915.0,286046997.0,N
1664876915.9,286046997.0,N
1664876935.8,286046995.4,Y
1664876955.6,286046996.6,P
1664876975.4,286046996.8,P
1664876995.3,286046998.7,N
1664877015.1,286046999.1,N
1664877035.9,286046998.9,N
1664877055.7,286046998.2,N
1664877075.5,286047001.0,N
1664877095.4,286046998.3,N
1664877115.2,286046998.5,N
1664877135.0,286046999.9,N
1664877135.9,286046999.9,N
1664877155.8,286047002.8,N
1664877175.6,286047002.1,N
1664877195.5,286047002.8,N
1664877215.3,286047000.3,N
1664877235.1,286046998.1,N
1664877255.9,286046998.2,N
1664877275.7,286046999.9,N
1664877295.5,286046999.7,N
1664877315.4,286047002.3,N
1664877335.2,286046999.8,N
1664877355.1,286047001.0,N
1664877356.0,286047001.0,N
1664877375.8,286047000.9,N
1664877395.6,286047002.3,N
1664877415.5,286047000.1,N
1664877435.3,286047002.2,N
1664877455.1,286047002.7,N
1664877475.9,286047001.9,N
1664877495.7,286047002.4,N
1664877515.6,286047000.6,N
1664877535.4,286046998.2,N
1664877555.2,286046998.6,N
1664877575.1,286047001.2,N
1664877576.0,286047001.2,N
1664877595.8,286046998.4,N
